Satellite: ORSTED
Catalog number: 25635
Epoch time:      103110.46996386
Element set:     884 
Inclination:       96.4614 deg
RA of node:        82.1766 deg
Eccentricity:    0.0145519
Arg of perigee:   135.1852 deg
Mean anomaly:     226.1211 deg
Mean motion:   14.44928562 rev/day
Decay rate:    3.6399E-006 rev/day^2
Epoch rev:           21873
Checksum:              331

Satellite: SUNSAT
Catalog number: 25636
Epoch time:      103109.21400086
Element set:     679 
Inclination:       96.4627 deg
RA of node:        79.7530 deg
Eccentricity:    0.0149423
Arg of perigee:   146.2462 deg
Mean anomaly:     214.8358 deg
Mean motion:   14.42999257 rev/day
Decay rate:    1.3699E-006 rev/day^2
Epoch rev:           21841
Checksum:              331

Satellite: UOSAT 12
Catalog number: 25693
Epoch time:      103111.18881427
Element set:     895 
Inclination:       64.5596 deg
RA of node:       182.1735 deg
Eccentricity:    0.0025996
Arg of perigee:   312.5928 deg
Mean anomaly:      47.2981 deg
Mean motion:   14.76454797 rev/day
Decay rate:    1.9799E-006 rev/day^2
Epoch rev:           21535
Checksum:              368

Satellite: FENGYUN 1C
Catalog number: 25730
Epoch time:      103110.53421797
Element set:     816 
Inclination:       98.6284 deg
RA of node:       132.6354 deg
Eccentricity:    0.0014159
Arg of perigee:   185.2979 deg
Mean anomaly:     174.8046 deg
Mean motion:   14.11740820 rev/day
Decay rate:    1.8000E-007 rev/day^2
Epoch rev:           20323
Checksum:              290

Satellite: ASTRA 1H
Catalog number: 25785
Epoch time:      103108.00000000
Element set:     379 
Inclination:        0.0122 deg
RA of node:       319.8851 deg
Eccentricity:    0.0002995
Arg of perigee:    65.1991 deg
Mean anomaly:     199.8210 deg
Mean motion:    1.00273184 rev/day
Decay rate:    1.1399E-006 rev/day^2
Epoch rev:            1408
Checksum:              262

Satellite: TERRA
Catalog number: 25994
Epoch time:      103111.11493709
Element set:     899 
Inclination:       98.1869 deg
RA of node:       186.3454 deg
Eccentricity:    0.0000900
Arg of perigee:    89.7078 deg
Mean anomaly:     270.4227 deg
Mean motion:   14.57137826 rev/day
Decay rate:    2.6800E-006 rev/day^2
Epoch rev:           17763
Checksum:              473

Satellite: JAWSAT
Catalog number: 26061
Epoch time:      103111.23206292
Element set:     817 
Inclination:      100.1946 deg
RA of node:       179.7098 deg
Eccentricity:    0.0035841
Arg of perigee:   105.5368 deg
Mean anomaly:     254.9774 deg
Mean motion:   14.37900803 rev/day
Decay rate:    3.3700E-006 rev/day^2
Epoch rev:           16939
Checksum:              302

Satellite: OPAL
Catalog number: 26063
Epoch time:      103111.24019011
Element set:     767 
Inclination:      100.2014 deg
RA of node:       176.9701 deg
Eccentricity:    0.0037338
Arg of perigee:   112.7397 deg
Mean anomaly:     247.7735 deg
Mean motion:   14.35508238 rev/day
Decay rate:    8.4999E-007 rev/day^2
Epoch rev:           16923
Checksum:              303

Satellite: ASUSAT
Catalog number: 26065
Epoch time:      103111.19582036
Element set:     785 
Inclination:      100.1985 deg
RA of node:       177.0816 deg
Eccentricity:    0.0037982
Arg of perigee:   114.3787 deg
Mean anomaly:     246.1363 deg
Mean motion:   14.35538265 rev/day
Decay rate:    9.1999E-007 rev/day^2
Epoch rev:           16922
Checksum:              332

Satellite: GOES 11
Catalog number: 26352
Epoch time:      103110.47430047
Element set:     120 
Inclination:        0.2918 deg
RA of node:        98.5128 deg
Eccentricity:    0.0002145
Arg of perigee:   271.5562 deg
Mean anomaly:     254.7703 deg
Mean motion:    1.00272661 rev/day
Decay rate:   -4.1000E-007 rev/day^2
Epoch rev:            1084
Checksum:              238

Satellite: EUTELSAT W4
Catalog number: 26369
Epoch time:      103105.78126854
Element set:     375 
Inclination:        0.0567 deg
RA of node:        31.2297 deg
Eccentricity:    0.0002759
Arg of perigee:   330.6543 deg
Mean anomaly:     158.9819 deg
Mean motion:    1.00272063 rev/day
Decay rate:    1.5099E-006 rev/day^2
Epoch rev:            1061
Checksum:              400

Satellite: FENGYUN 2B
Catalog number: 26382
Epoch time:      103110.28188384
Element set:     834 
Inclination:        0.4196 deg
RA of node:       292.3754 deg
Eccentricity:    0.0001017
Arg of perigee:   265.2454 deg
Mean anomaly:     216.1954 deg
Mean motion:    1.00282890 rev/day
Decay rate:   -3.4100E-006 rev/day^2
Epoch rev:            1032
Checksum:              262

Satellite: EUTELSAT W1
Catalog number: 26487
Epoch time:      103107.17691552
Element set:     385 
Inclination:        0.0211 deg
RA of node:       147.4715 deg
Eccentricity:    0.0005563
Arg of perigee:   274.1758 deg
Mean anomaly:     216.8781 deg
Mean motion:    1.00274473 rev/day
Decay rate:    6.2999E-007 rev/day^2
Epoch rev:             959
Checksum:              312

Satellite: ASTRA 2B
Catalog number: 26494
Epoch time:      103108.00000000
Element set:     262 
Inclination:        0.0178 deg
RA of node:       354.5658 deg
Eccentricity:    0.0005000
Arg of perigee:   302.8402 deg
Mean anomaly:     296.4717 deg
Mean motion:    1.00276704 rev/day
Decay rate:    1.4400E-006 rev/day^2
Epoch rev:             950
Checksum:              226

Satellite: NOAA 16
Catalog number: 26536
Epoch time:      103110.24218038
Element set:     297 
Inclination:       98.9116 deg
RA of node:        58.1104 deg
Eccentricity:    0.0011285
Arg of perigee:   131.2130 deg
Mean anomaly:     229.0014 deg
Mean motion:   14.11940082 rev/day
Decay rate:    9.5000E-007 rev/day^2
Epoch rev:           13271
Checksum:              252

Satellite: SAUDISAT 1A
Catalog number: 26545
Epoch time:      103109.78993856
Element set:     440 
Inclination:       64.5590 deg
RA of node:       206.8106 deg
Eccentricity:    0.0047523
Arg of perigee:   229.1134 deg
Mean anomaly:     130.5875 deg
Mean motion:   14.79138839 rev/day
Decay rate:    8.7799E-006 rev/day^2
Epoch rev:           13812
Checksum:              443

Satellite: UNISAT
Catalog number: 26547
Epoch time:      103109.40529864
Element set:     460 
Inclination:       64.5580 deg
RA of node:       209.9789 deg
Eccentricity:    0.0054782
Arg of perigee:   230.4810 deg
Mean anomaly:     129.1428 deg
Mean motion:   14.80000506 rev/day
Decay rate:    1.3810E-005 rev/day^2
Epoch rev:           13804
Checksum:              294

Satellite: TIUNGSAT 1
Catalog number: 26548
Epoch time:      103109.38092459
Element set:     443 
Inclination:       64.5580 deg
RA of node:       200.2858 deg
Eccentricity:    0.0040729
Arg of perigee:   229.6145 deg
Mean anomaly:     130.1373 deg
Mean motion:   14.81472587 rev/day
Decay rate:    9.6699E-006 rev/day^2
Epoch rev:           13822
Checksum:              328

Satellite: SAUDISAT 1B
Catalog number: 26549
Epoch time:      103109.39583314
Element set:     731 
Inclination:       64.5526 deg
RA of node:       212.4440 deg
Eccentricity:    0.0051995
Arg of perigee:   228.7095 deg
Mean anomaly:     130.9520 deg
Mean motion:   14.78067195 rev/day
Decay rate:    6.3699E-006 rev/day^2
Epoch rev:           13798
Checksum:              337

Satellite: AMSAT OSCAR 40
Catalog number: 26609
Epoch time:      103109.00807478
Element set:     325 
Inclination:        8.5228 deg
RA of node:        53.4139 deg
Eccentricity:    0.7957312
Arg of perigee:   165.7240 deg
Mean anomaly:     252.3808 deg
Mean motion:    1.25596241 rev/day
Decay rate:   -3.4600E-006 rev/day^2
Epoch rev:            1133
Checksum:              368

Satellite: GOES 12
Catalog number: 26871
Epoch time:      103110.13768469
Element set:     927 
Inclination:        0.1777 deg
RA of node:       274.5508 deg
Eccentricity:    0.0000800
Arg of perigee:    90.2220 deg
Mean anomaly:     176.3837 deg
Mean motion:    1.00347348 rev/day
Decay rate:   -2.6099E-006 rev/day^2
Epoch rev:             644
Checksum:              293

Satellite: PCSAT
Catalog number: 26931
Epoch time:      103110.55066679
Element set:     454 
Inclination:       67.0468 deg
RA of node:        98.6169 deg
Eccentricity:    0.0005940
Arg of perigee:   274.7897 deg
Mean anomaly:      85.2524 deg
Mean motion:   14.29148598 rev/day
Decay rate:    6.5000E-007 rev/day^2
Epoch rev:            8106
Checksum:              450

Satellite: SAPPHIRE
Catalog number: 26932
Epoch time:      103110.24141634
Element set:     448 
Inclination:       67.0534 deg
RA of node:        99.1047 deg
Eccentricity:    0.0003964
Arg of perigee:   264.8496 deg
Mean anomaly:      95.2152 deg
Mean motion:   14.29318295 rev/day
Decay rate:    4.7999E-007 rev/day^2
Epoch rev:            8104
Checksum:              319

Satellite: ENVISAT
Catalog number: 27386
Epoch time:      103111.23175986
Element set:     6 
Inclination:       98.5444 deg
RA of node:       178.9048 deg
Eccentricity:    0.0000909
Arg of perigee:    88.7274 deg
Mean anomaly:     271.4011 deg
Mean motion:   14.32247374 rev/day
Decay rate:    1.1700E-006 rev/day^2
Epoch rev:            5957
Checksum:              309

Satellite: IDEFIX/ARIANE 
Catalog number: 27422
Epoch time:      103110.56193277
Element set:     284 
Inclination:       98.6866 deg
RA of node:       189.4522 deg
Eccentricity:    0.0012121
Arg of perigee:   336.2082 deg
Mean anomaly:      23.8538 deg
Mean motion:   14.28003263 rev/day
Decay rate:    1.1900E-006 rev/day^2
Epoch rev:            5016
Checksum:              282

